Regional Weather Roundup
Issued by NWS

Home | Current Version | Previous Version | Text Only | Print | Product List | Glossary On
Versions: 1 2 3 4 5 6 7 8 9 10 11 12 13 14 15 16 17 18 19 20 21 22 23 24 25 26 27 28 29 30 31 32 33 34 35 36 37 38 39 40 41 42 43 44 45 46 47 48 49 50
000
ASHW40 PHFO 180143
RWRHI

WEATHER ROUNDUP FOR HAWAII
NATIONAL WEATHER SERVICE HONOLULU HI
300 PM HST TUE JAN 17 2017

THIS IS AN AUTOMATED REPORT THAT HAS NOT BEEN QUALITY CONTROLLED.

NOTE..."FAIR" INDICATES FEW OR NO CLOUDS BELOW 12,000 FEET WITH NO
SIGNIFICANT WEATHER AND/OR OBSTRUCTIONS TO VISIBILITY.

* - THESE SITES REPORT LIMITED FIELDS

HIZ001>004-180200-
KAUAI-NIIHAU-

CITY           SKY/WX    TMP DP  RH WIND       PRES   REMARKS
LIHUE APT      MOSUNNY   81  61  50 NE12      30.07F
PORT ALLEN*      N/A     79 N/A N/A SE12G17     N/A
POIPU*           N/A     81 N/A N/A NE8G16      N/A
PRINCEVILLE*     N/A     77 N/A N/A E12G18      N/A
KOKOLE POINT*  NOT AVBL
MOLOAA DAIRY*    N/A     79  63  57 E5G13       N/A
WAIMEA HTS*      N/A     82  64  54 SW8         N/A
PUU OPAE*        N/A     73  63  68 S5G10       N/A
PUU LUA*       NOT AVBL
MAKAHA RIDGE*    N/A     75  61  60 W2          N/A
$$

HIZ005>011-180200-
OAHU-

CITY           SKY/WX    TMP DP  RH WIND       PRES   REMARKS
HONOLULU       MOSUNNY   82  61  48 NE14      30.02F
KALAELOA       SUNNY     82  63  52 W12       30.04F
KANEOHE MCB    CLOUDY    79  65  62 NE8       30.03S
WHEELER FIELD  MOSUNNY   78  62  58 E9        30.04F
BELLOWS*         N/A    N/A N/A N/A NE9G15      N/A
KAHUKU*          N/A    N/A N/A N/A NE6G12      N/A
WHEELER*         N/A    N/A N/A N/A NE8G14      N/A
WAIANAE HARBOR   N/A    N/A N/A N/A S8          N/A
DILLINGHAM*      N/A     82  61  47 MISG        N/A
KAHUKU TRN*      N/A     77  63  61 W7G16       N/A
KAWAILOA*        N/A    N/A N/A N/A NE10G18     N/A
KII*             N/A     79  64  61 E10         N/A
MAKUA RANGE*     N/A    N/A N/A N/A W12G24      N/A
OAHU FOREST NW   N/A     73  59  60 SE9G23      N/A
SCHOFIELD BRK*   N/A     81  63  54 MISG        N/A
SCHOFIELD S*   NOT AVBL
WAIANAE VLY*     N/A     82  63  51 SE5G12      N/A
KUAOKALA*        N/A     73   5   7 N12G24      N/A
HONOULIUULI*   NOT AVBL
MOKUOLOE IS*   NOT AVBL
PALEHUA*         N/A     75  59  57 SE3G10      N/A
WAIAWA PHB*    NOT AVBL
$$

HIZ012>013-180200-
MOLOKAI-

CITY           SKY/WX    TMP DP  RH WIND       PRES   REMARKS
MOLOKAI AIRPT  SUNNY     85  66  53 N12G21    30.04F
KALAUPAPA      NOT AVBL
MAKAPULAPAI*     N/A     79  68  69 E12G18      N/A
MOLOKAI 1*       N/A     70  64  83 NW2         N/A
PUU ALII*        N/A     70  61  74 N1G7        N/A
$$

HIZ016-180200-
KAHOOLAWE-

CITY           SKY/WX    TMP DP  RH WIND       PRES   REMARKS
KAHOOLAWE*       N/A     72 N/A N/A E1          N/A
HAKIOAWA*        N/A     73  65  77 MISG      30.45S
HONOKANAIA*      N/A     78  67  69 E15G26    29.97F
KANELOA*         N/A     75  68  78 E16G26      N/A
KEALIALALO*    NOT AVBL
LUA MAKIKA*    NOT AVBL
$$

HIZ014>015-180200-
LANAI-

CITY           SKY/WX    TMP DP  RH WIND       PRES   REMARKS
LANAI CITY     CLOUDY    73  65  75 NE9       30.09R
LANAI 1*         N/A     73  64  73 NE12G18     N/A
$$

HIZ017>028-180200-
MAUI-

CITY           SKY/WX    TMP DP  RH WIND       PRES   REMARKS
KAHULUI        MOSUNNY   81  69  67 NE22G28   30.02F
KAPALUA-W MAUI PTSUNNY   75  66  73 N17       30.04R
HANA AIRPORT   LGT RAIN  73  68  83 S3        30.08S VSB 1/2
HANA*            N/A     77 N/A N/A E5G12       N/A
HALEAKALA SUMM   N/A     54  10  17 E32         N/A
MAALAEA BAY*     N/A     77 N/A N/A N14G21      N/A
HALEAKALA*     NOT AVBL
KAUPO GAP*       N/A     79  68  69 S3G16       N/A
KULA 1*          N/A    N/A N/A N/A NW5         N/A
$$

HIZ023>026-180200-
BIG ISLAND OF HAWAII COAST AND LOWER SLOPES-

CITY           SKY/WX    TMP DP  RH WIND       PRES   REMARKS
KAILUA KONA    CLOUDY    78  68  71 W5        29.99F
HILO           PTSUNNY   79  70  73 SE8       30.03F
HONOKAA*         N/A     70 N/A N/A VRB1        N/A
KAWAIHAE MWT*  NOT AVBL
KAWAIHAE*        N/A     77 N/A N/A SW3       30.01S
SOUTH POINT*     N/A     70 N/A N/A N12G17      N/A
UPOLU AIRPORT* NOT AVBL
KAMUELA*       PTCLDY    66  66 100 NE8       30.11S
HAKALAU*         N/A    N/A N/A N/A E5G12       N/A
KALOKO-HONOKO*   N/A     81  66  61 W3        29.99
PALI 2*          N/A     68  63  83 N13G22      N/A
KEALAKOMO*       N/A     81  66  61 E17G23      N/A
KAUPULEHU*       N/A     73  63  68 W5G12       N/A
KAPAPALA*      NOT AVBL
LOWER KAHUKU*    N/A     63  63 100 SE3G12      N/A
PUHE CS*         N/A     81  63  54 SW2         N/A
PUHO CS*         N/A     82  65  55 W3          N/A
PTA KEAMUKU*     N/A     64  61  88 CALM        N/A
WAIKOLOA*        N/A     75  64  69 NW3G10      N/A
$$

HIZ027>028-180200-
BIG ISLAND OF HAWAII INTERIOR AND SUMMMITS-

CITY           SKY/WX    TMP DP  RH WIND       PRES   REMARKS
BRADSHAW FIELD MOSUNNY   75  28  17 S21       30.28S
MK VISITOR CEN   N/A     59   0   9 E16         N/A
MAUNA KEA*       N/A     36  -6  17 NE31        N/A  WCI  22
MAUNA LOA*       N/A     54 -13   6 MISG        N/A
MAUNA LOA 1*   NOT AVBL
PTA KIPUKA*      N/A     75  59  57 NW7G16      N/A
PTA RANGE 17*    N/A    N/A N/A N/A E9G20       N/A
PTA WEST*        N/A     64  61  88 NW7         N/A
NENE CABIN*      N/A     61  46  59 E10G20      N/A
AHUMOA*          N/A     67  60  77 N8G14       N/A
PTA PORTABLE*  NOT AVBL
PUU MALI*        N/A     72 N/A N/A E18G33      N/A
$$

HIC003-180200-
NORTHWEST ISLANDS-

CITY           SKY/WX    TMP DP  RH WIND       PRES   REMARKS
MIDWAY ISLAND  CLOUDY    75  68  78 S13       29.89F
MIDWAY NOS*      N/A     73 N/A N/A MISG      29.86F
FRENCH FRIGATE NOT AVBL
$$

PHZ110>124-180-180200-
BUOY REPORTS

STATION/POSITION TIME  TEMP    WIND        PRES    WAVE   SWELL
                       AIR SEA DIR/SP/G            HT/PER HT/DIR
                 (UTC) (F)     (DEG/KT/KT) (MB)    (FT/S) (FT/D)
BUOY 51001       0100   75     180/  2/  4 1017.9
BUOY 51101       0050   74 77  180/  4/  6 1018.6F   8/11   8/300
BUOY 51100       NOT AVBL
BUOY 51002       0100   78      70/ 16/ 21 1014.1
BUOY 51003       0050   77 78   50/ 10/ 12 1016.0F   5/11   5/310
BUOY 51004       0050   71 77   80/ 16/ 17 1014.9F   8/10   7/110
BARBERS PT BUOY  NOT AVBL
WAIMEA BAY BUOY  0102      76                N/A     5/11   3/320
KAILUA BAY BUOY  0104      76                N/A     4/ 9   2/ 30
LANAI BUOY       0115      78                N/A     2/11   2/280
BARBERS PT 2     0109      78                N/A     4/11   2/290
PAUWELA MAUI     0109      76                N/A     5/11   3/330
HILO             0112      77                N/A     7/ 9   3/360
KANEOHE BAY BUOY 0106      76                N/A     4/ 9   2/350
HANALEI KAUAI    0052      77                N/A     6/13   3/300
KAHULUI HARBOR   0100   74 77   30/ 16/ 20 1016.8
HONOLULU HARBOR  0100   78 77   50/  5/ 10 1017.7
KILO NALU        NOT AVBL
HILO HARBOR      0100   80 76  120/  8/ 12 1016.6
MOKUOLOE         0036   76      20/  7/ 10   N/A
NAWILIWILI       0100   76      50/ 11/ 13 1017.7
WHOTS BUOY       NOT AVBL
BUOY 51028       NOT AVBL
$$

......................KEY........................................
  SKY/WX - SKY CONDITIONS/PRESENT WEATHER
  TMP    - TEMPERATURE IN FAHRENHEIT
  DWPT   - DEWPOINT IN FAHRENHEIT
  RH     - RELATIVE HUMIDITY IN PERCENT
  WIND   - DIRECTION AND SPEED /MPH FOR ISLANDS...KTS FOR BUOYS/
  PRES   - MEAN SEA LEVEL PRESSURE IN INCHES OF HG
  VSB    - VISIBILITY IN MILES
  HX     - HEAT INDEX
  WCI    - WIND CHILL INDEX
  VRB    - VARIABLE WIND DIRECTION
  N/A    - NOT AVAILABLE




USA.gov is the U.S. government's official web portal to all federal, state and local government web resources and services.